Location: Madison
(43.0730°N, 89.3819°W)
Time: 05:15:24
(UTC-05:00)

ISS - Pass Details

Date: 30 January 2019
Orbit: 411 x 421 km, 51.6° (Epoch: 16 October)

Event Time Altitude Azimuth Distance (km) Brightness Sun altitude
Rises 18:16:09 0° 289° (WNW) 2,371 1.2 -12.8°
Reaches altitude 10° 18:18:40 10° 308° (NW) 1,508 -0.4 -13.3°
Maximum altitude 18:21:11 19° 356° (N) 1,075 -1.8 -13.7°
Enters shadow 18:22:38 15° 28° (NNE) 1,234 -1.7 -14.0°
